DW5805 Weather Reports


Display with metric or nautical units.
time (UTC)temp
F
wind
direction
speed
MPH
gust
MPH
rain 1hr
in
rain 24hr
in
rain mn
in
humidity
%
barometer
mb
20190323000706 48 350 7.0 13.0 0.00 0.00 0.00 53 1016.9
20190323000204 49 336 7.0 13.0 0.00 0.00 0.00 52 1017.0
20190322235705 49 307 6.0 12.0 0.00 0.00 0.00 52 1017.0
20190322235204 49 261 5.0 9.0 0.00 0.00 0.00 52 1017.0
20190322234704 49 301 5.0 9.0 0.00 0.00 0.00 51 1017.0
20190322234204 49 304 5.0 9.0 0.00 0.00 0.00 51 1017.0
20190322233705 49 321 3.0 9.0 0.00 0.00 0.00 51 1017.0
20190322233204 49 13 2.0 5.0 0.00 0.00 0.00 51 1017.1
20190322232705 49 5 3.0 8.0 0.00 0.00 0.00 50 1017.1
20190322232204 49 10 3.0 8.0 0.00 0.00 0.00 51 1017.1
20190322231704 49 51 3.0 8.0 0.00 0.00 0.00 51 1017.3
20190322231204 49 5 2.0 8.0 0.00 0.00 0.00 51 1017.3
20190322230705 49 340 3.0 8.0 0.00 0.00 0.00 51 1017.3
20190322230204 49 216 3.0 8.0 0.00 0.00 0.00 50 1017.4
20190322225704 49 130 2.0 7.0 0.00 0.00 0.00 50 1017.4
20190322225206 49 121 3.0 7.0 0.00 0.00 0.00 50 1017.4
20190322224704 49 348 3.0 8.0 0.00 0.00 0.00 50 1017.4
20190322224205 49 340 3.0 8.0 0.00 0.00 0.00 50 1017.5
20190322223705 49 18 4.0 8.0 0.00 0.00 0.00 50 1017.4
20190322223205 49 350 3.0 8.0 0.00 0.00 0.00 50 1017.4
20190322222704 49 53 4.0 8.0 0.00 0.00 0.00 49 1017.4
20190322222205 49 39 4.0 8.0 0.00 0.00 0.00 48 1017.5
20190322221705 49 315 4.0 8.0 0.00 0.00 0.00 48 1017.5
20190322221204 50 329 4.0 9.0 0.00 0.00 0.00 47 1017.5
20190322220705 50 321 5.0 9.0 0.00 0.00 0.00 47 1017.6
20190322220204 49 315 4.0 9.0 0.00 0.00 0.00 47 1017.5
20190322215704 49 327 3.0 6.0 0.00 0.00 0.00 45 1017.5
20190322215204 49 138 2.0 6.0 0.00 0.00 0.00 45 1017.6
20190322214704 50 17 2.0 5.0 0.00 0.00 0.00 41 1017.6
20190322214204 50 55 1.0 6.0 0.00 0.00 0.00 42 1017.6
20190322213705 50 316 2.0 8.0 0.00 0.00 0.00 41 1017.6
20190322213204 49 35 3.0 8.0 0.00 0.00 0.00 42 1017.7
20190322212705 49 105 3.0 8.0 0.00 0.00 0.00 42 1017.7
20190322212204 49 173 3.0 8.0 0.00 0.00 0.00 43 1017.7
20190322211704 49 108 3.0 7.0 0.00 0.00 0.00 42 1017.8
20190322211204 49 0 2.0 6.0 0.00 0.00 0.00 43 1017.8
20190322210705 48 63 2.0 7.0 0.00 0.00 0.00 43 1017.8
20190322210204 49 134 3.0 8.0 0.00 0.00 0.00 43 1018.0
20190322205704 49 134 4.0 8.0 0.00 0.00 0.00 43 1018.0
20190322205205 48 136 4.0 8.0 0.00 0.00 0.00 43 1018.1
20190322204704 48 103 3.0 10.0 0.00 0.00 0.00 42 1018.1
20190322204204 48 96 4.0 10.0 0.00 0.00 0.00 42 1018.2
20190322203705 48 143 5.0 10.0 0.00 0.00 0.00 41 1018.1
20190322203204 48 142 4.0 10.0 0.00 0.00 0.00 42 1018.1
20190322202704 48 120 3.0 10.0 0.00 0.00 0.00 41 1018.1
20190322202204 48 121 5.0 10.0 0.00 0.00 0.00 42 1018.2
20190322201705 47 154 4.0 10.0 0.00 0.00 0.00 42 1018.2
20190322201204 47 107 3.0 12.0 0.00 0.00 0.00 43 1018.2
20190322200704 47 93 5.0 12.0 0.00 0.00 0.00 43 1018.2
20190322200205 47 118 5.0 9.0 0.00 0.00 0.00 44 1018.2
20190322195705 47 118 5.0 9.0 0.00 0.00 0.00 44 1018.2
20190322195205 46 166 4.0 9.0 0.00 0.00 0.00 43 1018.2
20190322194704 46 113 3.0 7.0 0.00 0.00 0.00 42 1018.2
20190322194205 46 175 3.0 7.0 0.00 0.00 0.00 42 1018.1
20190322193704 46 119 3.0 9.0 0.00 0.00 0.00 41 1018.1
20190322193204 45 152 3.0 9.0 0.00 0.00 0.00 41 1018.1
20190322192705 45 121 3.0 9.0 0.00 0.00 0.00 41 1018.2
20190322192205 45 150 3.0 9.0 0.00 0.00 0.00 43 1018.1
20190322191704 44 69 3.0 9.0 0.00 0.00 0.00 45 1018.2
20190322191205 45 141 3.0 4.0 0.00 0.00 0.00 45 1018.2
20190322190704 45 75 2.0 4.0 0.00 0.00 0.00 44 1018.3
20190322190204 45 101 2.0 6.0 0.00 0.00 0.00 44 1018.3
20190322185704 45 128 2.0 6.0 0.00 0.00 0.00 42 1018.3
20190322185205 45 55 2.0 6.0 0.00 0.00 0.00 42 1018.4
20190322184705 45 98 2.0 5.0 0.00 0.00 0.00 42 1018.4
20190322184204 46 94 1.0 5.0 0.00 0.00 0.00 41 1018.4
20190322183704 46 126 2.0 5.0 0.00 0.00 0.00 39 1018.4
20190322183204 46 140 1.0 5.0 0.00 0.00 0.00 40 1018.5
20190322182705 46 58 2.0 8.0 0.00 0.00 0.00 39 1018.5
20190322182205 47 60 3.0 8.0 0.00 0.00 0.00 40 1018.4
20190322181705 46 192 3.0 8.0 0.00 0.00 0.00 45 1018.4
20190322181204 46 115 3.0 7.0 0.00 0.00 0.00 45 1018.3
20190322180704 46 62 3.0 7.0 0.00 0.00 0.00 43 1018.3
20190322180207 46 55 4.0 7.0 0.00 0.00 0.00 41 1018.3
20190322175705 45 113 3.0 8.0 0.00 0.00 0.00 46 1018.3
20190322175204 45 120 3.0 8.0 0.00 0.00 0.00 47 1018.3
20190322174705 45 102 4.0 8.0 0.00 0.00 0.00 45 1018.3
20190322174205 44 115 4.0 8.0 0.00 0.00 0.00 50 1018.3
20190322173705 44 101 4.0 8.0 0.00 0.00 0.00 51 1018.4
20190322173204 43 99 4.0 8.0 0.00 0.00 0.00 50 1018.4
20190322172705 43 121 3.0 7.0 0.00 0.00 0.00 53 1018.4
20190322172204 42 92 3.0 7.0 0.00 0.00 0.00 55 1018.4
20190322171704 42 155 3.0 8.0 0.00 0.00 0.00 55 1018.4
20190322171205 42 88 3.0 8.0 0.00 0.00 0.00 56 1018.4
20190322170704 41 104 3.0 8.0 0.00 0.00 0.00 56 1018.3
20190322170204 42 111 2.0 4.0 0.00 0.00 0.00 56 1018.3
20190322165705 42 22 2.0 4.0 0.00 0.00 0.00 56 1018.3
20190322165204 42 0 1.0 4.0 0.00 0.00 0.00 59 1018.3
20190322164705 41 157 1.0 4.0 0.00 0.00 0.00 61 1018.4
20190322164205 40 159 1.0 3.0 0.00 0.00 0.00 63 1018.3
20190322163704 39 108 1.0 2.0 0.00 0.00 0.00 65 1018.3
20190322163205 38 107 1.0 3.0 0.00 0.00 0.00 66 1018.3
20190322162704 38 107 1.0 3.0 0.00 0.00 0.00 66 1018.3
20190322162205 38 107 2.0 3.0 0.00 0.00 0.00 66 1018.1
20190322161704 38 106 2.0 4.0 0.00 0.00 0.00 67 1018.1
20190322161205 38 103 2.0 4.0 0.00 0.00 0.00 66 1018.1
20190322160706 39 105 2.0 4.0 0.00 0.00 0.00 65 1018.0
20190322160204 39 101 3.0 4.0 0.00 0.00 0.00 66 1018.0
20190322155704 38 107 2.0 4.0 0.00 0.00 0.00 68 1017.8
20190322155205 38 121 2.0 4.0 0.00 0.00 0.00 70 1017.8
20190322154705 37 123 2.0 4.0 0.00 0.00 0.00 70 1017.8
20190322154204 37 119 2.0 4.0 0.00 0.00 0.00 72 1017.7
20190322153705 36 121 3.0 5.0 0.00 0.00 0.00 76 1017.8
20190322153204 36 111 3.0 5.0 0.00 0.00 0.00 76 1017.7
20190322152705 35 155 2.0 5.0 0.00 0.00 0.00 79 1017.7
20190322152204 34 156 1.0 3.0 0.00 0.00 0.00 79 1018.0
20190322151704 34 156 1.0 3.0 0.00 0.00 0.00 79 1018.0
20190322151204 34 156 1.0 4.0 0.00 0.00 0.00 80 1017.8
20190322150704 33 156 1.0 4.0 0.00 0.00 0.00 80 1017.8
20190322150204 33 156 1.0 4.0 0.00 0.00 0.00 80 1017.8
20190322145704 33 159 2.0 4.0 0.00 0.00 0.00 81 1017.8
20190322145204 32 191 1.0 4.0 0.00 0.00 0.00 82 1018.1
20190322144705 32 194 2.0 4.0 0.00 0.00 0.00 82 1018.1
20190322144205 32 206 2.0 4.0 0.00 0.00 0.00 82 1018.0
20190322143704 31 246 1.0 3.0 0.00 0.00 0.00 83 1018.1
20190322143205 31 190 1.0 3.0 0.00 0.00 0.00 82 1018.0
20190322142704 30 190 1.0 3.0 0.00 0.00 0.00 82 1017.8
20190322142204 30 206 2.0 4.0 0.00 0.00 0.00 83 1018.0
20190322141705 30 206 2.0 4.0 0.00 0.00 0.00 83 1018.0
20190322141204 30 175 1.0 4.0 0.00 0.00 0.00 83 1017.8
20190322140705 30 159 1.0 3.0 0.00 0.00 0.00 82 1017.6
20190322140204 30 159 1.0 4.0 0.00 0.00 0.00 82 1017.7
20190322135204 30 153 2.0 5.0 0.00 0.00 0.00 81 1017.6
20190322134705 30 171 2.0 5.0 0.00 0.00 0.00 81 1017.6
20190322134204 30 178 2.0 5.0 0.00 0.00 0.00 81 1017.4
20190322133705 30 194 2.0 3.0 0.00 0.00 0.00 81 1017.5
20190322133205 30 203 2.0 3.0 0.00 0.00 0.00 81 1017.4
20190322132704 30 205 2.0 4.0 0.00 0.00 0.00 81 1017.4
20190322132204 30 208 2.0 5.0 0.00 0.00 0.00 82 1017.4
20190322131704 30 208 3.0 5.0 0.00 0.00 0.00 82 1017.4
20190322131205 30 213 2.0 5.0 0.00 0.00 0.00 81 1017.3
20190322130704 30 199 1.0 2.0 0.00 0.00 0.00 81 1017.3
20190322130204 31 276 1.0 4.0 0.00 0.00 0.00 81 1017.4
20190322125704 31 276 1.0 4.0 0.00 0.00 0.00 82 1017.4
20190322125206 31 276 2.0 4.0 0.00 0.00 0.00 82 1017.4
20190322124704 31 276 3.0 4.0 0.00 0.00 0.00 81 1017.5
20190322124204 31 265 3.0 4.0 0.00 0.00 0.00 81 1017.4
20190322123704 31 248 2.0 3.0 0.00 0.00 0.00 81 1017.3
20190322123205 31 200 1.0 3.0 0.00 0.00 0.00 80 1017.1
20190322122704 31 200 1.0 3.0 0.00 0.00 0.00 80 1017.1
20190322122205 31 209 1.0 2.0 0.00 0.00 0.00 79 1017.0
20190322121704 31 209 1.0 3.0 0.00 0.00 0.00 79 1017.1
20190322121204 32 209 1.0 3.0 0.00 0.00 0.00 79 1017.1
20190322120705 32 209 1.0 3.0 0.00 0.00 0.00 79 1017.1
20190322120207 32 209 1.0 3.0 0.00 0.00 0.00 79 1017.1
20190322115705 32 220 0.0 2.0 0.00 0.00 0.00 78 1017.1
20190322115204 32 220 0.0 3.0 0.00 0.00 0.00 77 1017.0
20190322114704 32 220 1.0 3.0 0.00 0.00 0.00 76 1016.9
20190322114204 33 220 1.0 3.0 0.00 0.00 0.00 75 1016.9
20190322113704 33 220 1.0 5.0 0.00 0.00 0.00 75 1016.9
20190322113205 33 220 2.0 11.0 0.00 0.00 0.00 75 1016.9
20190322112704 33 229 3.0 11.0 0.00 0.00 0.00 76 1017.0
20190322112204 33 285 4.0 11.0 0.00 0.00 0.00 77 1017.0
20190322111704 33 300 3.0 7.0 0.00 0.00 0.00 78 1017.0
20190322111205 32 271 3.0 6.0 0.00 0.00 0.00 78 1016.9
20190322110704 32 252 2.0 6.0 0.00 0.00 0.00 79 1016.9
20190322110204 32 293 2.0 6.0 0.00 0.00 0.00 80 1017.0
20190322105705 32 276 2.0 4.0 0.00 0.00 0.00 80 1017.0
20190322105205 32 321 3.0 4.0 0.00 0.00 0.00 80 1017.0
20190322104704 32 268 2.0 4.0 0.00 0.00 0.00 80 1017.0
20190322104205 32 290 1.0 3.0 0.00 0.00 0.00 80 1017.0
20190322103704 32 290 1.0 3.0 0.00 0.00 0.00 80 1017.0
20190322103204 32 290 1.0 3.0 0.00 0.00 0.00 80 1017.0
20190322102704 32 290 1.0 2.0 0.00 0.00 0.00 79 1017.0
20190322102204 32 290 1.0 2.0 0.00 0.00 0.00 79 1017.0
20190322101705 32 290 1.0 3.0 0.00 0.00 0.00 79 1017.1
20190322101205 32 290 1.0 3.0 0.00 0.00 0.00 79 1017.3
20190322100704 32 290 2.0 3.0 0.00 0.00 0.00 79 1017.3
20190322100206 32 290 2.0 3.0 0.00 0.01 0.00 79 1017.3
20190322095704 32 290 2.0 4.0 0.00 0.01 0.00 79 1017.3
20190322095204 32 290 2.0 4.0 0.00 0.01 0.00 79 1017.4
20190322094704 32 290 2.0 4.0 0.00 0.01 0.00 79 1017.4
20190322094205 33 290 1.0 4.0 0.00 0.01 0.00 78 1017.4
20190322093705 33 290 1.0 4.0 0.00 0.01 0.00 79 1017.4
20190322093204 33 290 2.0 4.0 0.00 0.01 0.00 79 1017.4
20190322092704 33 290 3.0 4.0 0.00 0.01 0.00 78 1017.4
20190322092205 33 290 3.0 5.0 0.00 0.01 0.00 78 1017.5
20190322091704 33 290 3.0 5.0 0.00 0.01 0.00 78 1017.5
20190322091205 33 290 3.0 5.0 0.00 0.01 0.00 78 1017.5
20190322090704 33 290 2.0 3.0 0.00 0.01 0.00 77 1017.4
20190322090205 33 290 2.0 4.0 0.00 0.01 0.00 77 1017.3
20190322085704 33 290 2.0 4.0 0.00 0.01 0.00 77 1017.3
20190322085205 33 290 2.0 4.0 0.00 0.01 0.00 76 1017.3
20190322084704 33 290 2.0 3.0 0.00 0.01 0.00 76 1017.1
20190322084205 33 290 1.0 3.0 0.00 0.01 0.00 75 1017.1
20190322083705 33 290 2.0 3.0 0.00 0.01 0.00 76 1017.0
20190322083204 33 290 2.0 3.0 0.00 0.01 0.00 76 1016.9
20190322082705 33 290 1.0 2.0 0.00 0.01 0.00 76 1016.9
20190322082204 33 290 1.0 2.0 0.00 0.01 0.00 76 1016.9
20190322081705 33 290 1.0 3.0 0.00 0.01 0.00 76 1016.9
20190322081205 33 290 1.0 3.0 0.00 0.01 0.00 75 1016.8
20190322080705 33 290 1.0 2.0 0.00 0.01 0.00 75 1016.8
20190322080204 33 290 1.0 2.0 0.00 0.01 0.00 75 1016.8
20190322075704 33 290 1.0 1.0 0.00 0.01 0.00 74 1016.8
20190322075205 34 290 0.0 1.0 0.00 0.01 0.00 74 1016.7
20190322074705 34 290 0.0 1.0 0.00 0.01 0.00 73 1016.7
20190322074205 34 290 0.0 1.0 0.00 0.01 0.00 73 1016.8
20190322073704 34 290 0.0 2.0 0.00 0.01 0.00 73 1016.7
20190322073205 34 290 0.0 2.0 0.00 0.01 0.00 72 1016.8
20190322072704 34 290 1.0 2.0 0.00 0.01 0.00 72 1016.8
20190322072204 34 290 1.0 2.0 0.00 0.01 0.00 74 1016.8
20190322071704 35 290 1.0 3.0 0.00 0.01 0.00 74 1016.8
20190322071204 35 290 2.0 3.0 0.00 0.01 0.00 74 1016.9
20190322070704 35 290 2.0 4.0 0.00 0.01 0.00 73 1016.8
20190322070204 35 290 2.0 4.0 0.00 0.01 0.00 74 1016.8
20190322065705 35 290 2.0 4.0 0.00 0.01 0.00 73 1016.8
20190322065204 35 311 3.0 6.0 0.00 0.01 0.00 72 1016.8
20190322064704 35 311 3.0 6.0 0.00 0.01 0.00 72 1016.8
20190322064205 35 283 3.0 6.0 0.00 0.01 0.00 71 1016.8
20190322063704 35 269 2.0 3.0 0.00 0.01 0.00 69 1016.8
20190322063205 35 269 2.0 3.0 0.00 0.01 0.00 69 1016.8
20190322062705 35 269 2.0 5.0 0.00 0.01 0.00 68 1016.8
20190322062204 35 260 1.0 5.0 0.00 0.01 0.00 68 1016.8
20190322061704 35 147 2.0 5.0 0.00 0.01 0.00 68 1016.8
20190322061204 36 144 3.0 5.0 0.00 0.01 0.00 67 1016.6
20190322060704 36 180 2.0 4.0 0.00 0.01 0.00 67 1016.6
20190322060205 36 178 2.0 4.0 0.00 0.01 0.00 66 1016.7
20190322055704 37 185 1.0 3.0 0.00 0.01 0.00 66 1016.7
20190322055204 37 172 1.0 3.0 0.00 0.01 0.00 66 1016.7
20190322054705 38 172 1.0 3.0 0.00 0.01 0.00 65 1016.7
20190322054204 38 179 1.0 4.0 0.00 0.01 0.00 65 1016.6
20190322053705 39 185 2.0 7.0 0.00 0.01 0.00 64 1016.6
20190322053205 39 185 3.0 9.0 0.00 0.01 0.00 64 1016.4
20190322052705 39 272 4.0 9.0 0.00 0.01 0.00 64 1016.4
20190322052205 39 270 5.0 10.0 0.00 0.01 0.00 64 1016.4
20190322051704 39 277 6.0 11.0 0.00 0.01 0.00 63 1016.3
20190322051206 39 250 7.0 11.0 0.00 0.01 0.00 63 1016.3
20190322050704 40 277 7.0 11.0 0.00 0.01 0.00 62 1016.3
20190322050204 40 295 6.0 11.0 0.00 0.01 0.00 62 1016.3
20190322045704 40 304 6.0 9.0 0.00 0.01 0.00 61 1016.3
20190322045205 40 314 6.0 12.0 0.00 0.01 0.00 60 1016.4
20190322044706 40 294 5.0 12.0 0.00 0.01 0.00 60 1016.4
20190322044205 40 302 4.0 12.0 0.00 0.01 0.00 59 1016.4
20190322043704 40 310 4.0 8.0 0.00 0.01 0.00 58 1016.4
20190322043205 40 304 4.0 8.0 0.00 0.01 0.00 57 1016.3
20190322042705 40 299 3.0 8.0 0.00 0.01 0.00 56 1016.2
20190322042207 41 323 3.0 8.0 0.00 0.01 0.00 55 1016.2
20190322041708 41 263 4.0 9.0 0.00 0.01 0.00 54 1016.3
20190322041205 41 292 4.0 9.0 0.00 0.01 0.00 54 1016.3
20190322040704 41 301 4.0 9.0 0.00 0.01 0.00 53 1016.2
20190322040205 42 309 5.0 12.0 0.00 0.02 0.00 52 1016.2
20190322035704 42 317 6.0 12.0 0.00 0.02 0.00 52 1016.1
20190322035204 42 300 6.0 12.0 0.00 0.03 0.00 52 1016.1
20190322034704 42 267 6.0 12.0 0.00 0.03 0.00 50 1016.0
20190322034205 42 290 6.0 16.0 0.00 0.04 0.00 50 1015.7
20190322033705 43 308 7.0 16.0 0.00 0.04 0.00 50 1015.9
20190322033204 42 277 9.0 16.0 0.00 0.04 0.00 50 1015.7
20190322032704 42 281 9.0 18.0 0.00 0.04 0.00 51 1015.6
20190322032204 42 194 8.0 18.0 0.00 0.04 0.00 52 1015.5
20190322031704 42 206 8.0 18.0 0.00 0.04 0.00 52 1015.5
20190322031204 42 224 9.0 17.0 0.00 0.04 0.00 52 1015.5
20190322030704 43 233 9.0 17.0 0.00 0.04 0.00 52 1015.4
20190322030204 43 236 9.0 17.0 0.00 0.04 0.00 52 1015.3
20190322025704 43 259 8.0 20.0 0.00 0.04 0.00 52 1015.3
20190322025205 43 233 8.0 20.0 0.00 0.04 0.00 52 1015.3
20190322024704 43 267 9.0 24.0 0.00 0.04 0.00 52 1015.3
20190322024204 43 258 10.0 24.0 0.00 0.04 0.00 53 1015.4
20190322023704 43 260 9.0 20.0 0.00 0.04 0.00 54 1015.4
20190322023205 43 273 8.0 18.0 0.00 0.04 0.00 54 1015.3
20190322022705 43 274 9.0 19.0 0.00 0.04 0.00 55 1015.3
20190322022205 43 257 10.0 19.0 0.00 0.04 0.00 54 1015.3
20190322021705 43 267 10.0 18.0 0.00 0.04 0.00 54 1015.2
20190322021205 43 301 10.0 20.0 0.00 0.04 0.00 54 1015.2
20190322020705 43 297 10.0 20.0 0.00 0.04 0.00 54 1015.2
20190322020204 44 301 11.0 25.0 0.00 0.04 0.00 53 1015.2
20190322015704 44 274 11.0 25.0 0.00 0.04 0.00 53 1015.2
20190322015205 44 298 12.0 25.0 0.00 0.04 0.00 54 1015.2
20190322014705 44 273 10.0 22.0 0.00 0.04 0.00 53 1014.9
20190322014205 44 273 11.0 22.0 0.00 0.04 0.00 53 1014.9
20190322013704 44 316 11.0 22.0 0.00 0.04 0.00 53 1014.9
20190322013205 45 261 9.0 19.0 0.00 0.04 0.00 53 1014.9
20190322012705 45 271 10.0 25.0 0.00 0.04 0.00 54 1014.8
20190322012205 45 284 12.0 25.0 0.00 0.04 0.00 53 1014.7
20190322011705 45 288 13.0 25.0 0.00 0.04 0.00 53 1014.7
20190322011204 46 281 12.0 20.0 0.00 0.04 0.00 53 1014.7
20190322010705 46 290 10.0 17.0 0.00 0.04 0.00 52 1014.6
20190322010204 46 289 9.0 20.0 0.00 0.04 0.00 51 1014.7
20190322005704 47 326 11.0 20.0 0.00 0.04 0.00 51 1014.6
20190322005205 47 296 11.0 21.0 0.00 0.04 0.00 50 1014.7
20190322004705 47 277 12.0 21.0 0.00 0.04 0.00 49 1014.7
20190322004205 47 286 11.0 18.0 0.00 0.04 0.00 48 1014.6
20190322003704 48 295 10.0 17.0 0.00 0.04 0.00 48 1014.6
20190322003204 48 280 9.0 17.0 0.00 0.04 0.00 47 1014.5
20190322002704 49 232 9.0 16.0 0.00 0.04 0.00 46 1014.5
20190322002204 50 290 9.0 15.0 0.00 0.04 0.00 45 1014.5
20190322001704 51 288 9.0 16.0 0.00 0.04 0.00 44 1014.5
20190322001205 51 256 9.0 17.0 0.00 0.04 0.00 45 1014.5